User: anonymous   Login
Location: Bow
(51.5261°N, 0.0167°W)
Time: 11:02:08
(UTC+00:00)
Language:

Cosmos 1674 - Orbit

View from above orbital plane
View from above orbital plane
View from above satellite
View from above satellite

Ground track
Ground track

The orbit data is extracted from the following two-line orbital elements,

1 15944U 85069A   20338.22005478  .00001702  00000-0  77142-4 0  9990
2 15944  82.5091  54.5369 0017931  48.6633 311.6141 15.20028800930019
Epoch (UTC): 03 December 2020 05:16:52
Eccentricity: 0.0017931
inclination: 82.5091°
perigee height: 493 km
apogee height: 518 km
right ascension of ascending node: 54.5369°
argument of perigee: 48.6633°
revolutions per day: 15.20028800
mean anomaly at epoch: 311.6141°
orbit number at epoch: 93001

The dashed part of the orbit path shows where the satellite is in the earth's shadow,  

DLR